Terminal Aerodrome Forecast
Issued by NWS

Home | Current Version | Previous Version | Text Only | Print | Product List | Glossary On
Versions: 1 2 3 4 5 6 7 8 9 10 11 12 13 14 15 16 17 18 19 20 21 22 23 24 25 26 27 28
000
FTPA31 PHFO 261700
TAFLNY
TAF
PHNY 261740Z 2618/2718 04020G28KT P6SM VCSH SCT005 BKN020
     FM262100 04020G28KT P6SM VCSH SCT010 BKN020
     FM270300 05020G28KT P6SM FEW015 SCT030
     FM270500 05015KT P6SM SCT030
      AMD NOT SKED=

USA.gov is the U.S. government's official web portal to all federal, state and local government web resources and services.